Temperature
13 12 13 13 13 14 14 14 14 14 15 14 14 13 12 12 12 13 12 13 13 13 13 13 13 13 14 14 14 14 14 14 14 13 13 13 13 13 13 13 13 14 15
12 13 13 12 12 13 13 13 14 13 13 13 13 13 13 12 12 12 12 12 13 13 13 13 13 13 13 13 13 14 14 14 13 13 12 12 12 12 12 12 12 12 13
11 11 12 12 11 11 12 13 13 13 13 13 13 13 13 12 12 12 12 12 13 13 13 12 13 12 12 12 12 13 13 13 13 13 12 12 12 12 11 11 11 11 12
11 10 9 11 11 10 11 12 12 12 13 13 13 13 13 13 12 12 12 12 13 13 13 13 13 13 13 12 12 12 12 12 12 12 12 12 12 12 12 11 11 11 10
10 10 8 9 11 9 10 11 12 12 13 13 13 13 13 13 13 13 12 12 12 13 13 13 13 13 13 13 12 12 11 11 11 11 12 12 12 13 13 13 12 11 11
10 10 10 10 8 9 10 11 11 11 12 12 12 12 13 13 13 13 12 12 12 12 13 13 13 13 12 12 12 12 11 11 11 12 12 13 13 13 13 13 12 12 11
11 11 11 11 10 10 10 10 10 10 11 12 12 12 12 12 13 12 12 11 12 12 12 12 12 13 12 12 12 12 11 11 12 12 12 12 12 12 12 13 12 13 12
11 11 11 11 11 10 10 10 10 10 10 11 11 11 12 12 12 12 12 11 11 11 12 12 12 12 12 12 11 12 12 12 12 12 12 11 11 11 11 11 11 11 11
10 10 10 10 10 10 10 10 9 9 9 10 11 11 11 11 12 12 11 11 11 11 11 11 11 12 11 11 12 12 12 12 12 12 12 11 11 11 11 11 11 12 12
9 9 9 9 9 9 10 9 9 9 9 9 9 10 10 10 11 12 11 11 11 11 11 11 11 11 12 11 11 12 12 12 11 11 11 11 11 11 11 11 12 13 13
8 8 8 8 9 9 9 9 9 9 9 9 9 9 10 9 10 11 11 11 12 11 11 11 11 11 11 11 11 11 11 11 11 10 10 10 10 10 10 10 11 12 12
6 7 7 7 8 9 9 9 9 9 9 9 9 8 8 9 8 9 10 11 11 12 12 11 11 11 11 11 10 11 11 11 11 11 11 11 11 10 9 9 10 9 10
5 5 5 6 7 8 8 8 8 9 9 10 10 8 8 8 8 8 9 10 10 11 12 10 10 10 10 10 10 10 10 11 11 11 11 11 10 9 9 8 8 9 8
4 5 5 5 6 6 7 8 9 10 10 10 9 8 8 7 8 8 9 10 10 11 11 10 10 9 9 9 9 9 10 10 11 11 10 10 9 9 10 9 9 9 9
4 4 4 4 4 5 6 7 8 9 9 10 8 8 7 7 8 8 8 9 9 10 10 9 9 9 9 9 9 9 9 9 10 10 10 9 10 10 10 10 10 10 10
3 3 3 4 4 4 5 6 7 8 8 8 8 8 7 7 8 8 8 9 10 10 9 10 10 10 9 10 10 9 9 10 10 10 10 10 10 10 10 10 10 10 10
3 3 3 3 3 4 4 5 7 8 8 7 7 7 7 8 8 8 8 8 9 10 10 10 10 10 10 10 10 10 10 10 10 10 10 10 10 10 9 10 10 10 9
3 3 3 3 3 3 4 5 6 8 8 7 7 8 7 7 7 7 8 8 8 9 11 11 11 11 10 10 10 10 10 9 10 10 10 10 10 10 10 10 10 10 9
3 3 3 3 3 3 4 5 7 8 9 8 6 7 7 7 7 7 8 8 8 9 12 11 11 11 11 11 10 10 10 9 10 10 10 10 10 10 10 10 9 9 9
2 2 2 2 3 4 5 7 8 8 8 7 6 6 6 6 7 7 7 7 8 9 12 12 11 11 11 11 10 10 10 9 9 10 10 10 10 10 10 10 9 9 9
2 3 2 3 4 5 7 8 7 7 7 7 6 6 6 6 7 7 8 7 9 10 11 12 11 11 11 11 10 10 10 10 10 10 10 10 10 10 10 10 9 9 9
3 3 4 4 5 6 6 6 6 6 6 6 6 6 7 7 7 8 8 9 10 10 11 12 12 11 11 11 11 11 11 10 10 10 10 10 10 10 10 10 10 9 9
3 4 4 5 6 6 6 6 6 6 6 6 6 6 6 7 9 9 10 10 10 11 12 12 12 12 12 11 11 11 11 11 11 10 10 10 10 10 10 10 10 10 9
4 4 5 5 6 6 6 6 5 5 5 5 6 6 7 10 10 10 10 10 10 11 12 12 12 12 12 11 11 11 11 11 11 11 10 10 10 10 10 10 10 10 10
5 5 6 6 7 7 7 6 5 5 6 7 7 8 9 10 11 11 10 10 11 12 12 12 12 12 11 11 12 11 11 11 11 11 10 10 11 10 10 10 10 10 10
7 7 7 8 8 8 8 7 6 7 8 8 8 9 9 10 11 11 11 11 11 11 12 12 12 12 11 11 11 11 11 11 10 10 10 10 10 10 10 10 10 10 10
Wind_Speed
17 16 15 15 14 12 12 13 12 11 10 10 10 11 13 13 12 11 12 11 9 8 9 8 7 7 8 10 10 9 10 10 7 2 6 10 10 11 9 6 9 12 12
15 14 14 14 16 15 13 14 14 13 13 12 11 10 12 12 11 11 10 8 6 6 5 4 4 4 6 6 7 10 9 10 8 9 8 9 10 10 9 8 7 12 13
14 15 12 12 15 16 15 15 15 15 15 15 13 11 11 10 11 10 9 7 4 5 5 3 3 5 4 5 7 4 3 8 10 10 10 12 11 12 11 11 11 11 12
7 13 13 9 13 17 17 14 15 16 17 17 14 12 10 10 10 10 8 8 5 5 4 5 5 4 3 7 9 9 8 10 10 8 6 10 12 15 13 11 10 10 10
10 10 13 12 10 14 17 16 15 13 15 17 16 13 11 10 8 7 7 8 5 2 2 4 5 5 6 9 9 10 10 9 7 6 4 6 10 12 12 11 11 10 9
15 16 15 13 13 14 14 14 15 12 10 14 17 15 12 10 8 4 7 7 3 2 2 0 4 8 8 10 11 11 9 9 9 7 5 6 8 9 8 10 11 10 9
14 15 13 10 13 14 13 13 16 15 12 11 16 16 14 12 13 11 8 6 4 3 4 1 6 8 10 11 11 11 11 12 9 7 8 8 8 8 7 8 7 6 8
21 20 21 18 19 20 15 14 15 14 12 11 13 16 16 14 16 14 10 10 8 5 4 4 7 8 8 10 10 10 11 9 6 8 7 7 9 8 6 6 7 7 8
23 22 23 23 21 20 19 16 16 14 14 12 10 12 14 14 17 17 13 13 11 9 7 6 6 7 4 4 8 11 11 9 11 15 14 13 13 10 5 5 7 8 7
24 22 21 22 20 20 17 16 15 15 16 15 11 8 9 13 17 19 16 13 11 10 9 6 5 8 5 1 6 9 11 10 11 12 12 12 10 7 2 2 5 7 7
22 21 21 22 20 18 16 15 15 16 17 16 15 10 3 7 10 19 18 14 11 11 11 10 7 9 7 3 4 8 10 11 11 11 10 9 8 8 7 6 6 3 3
20 18 21 22 20 18 16 15 15 16 17 16 15 12 7 2 8 10 17 16 9 10 11 10 8 10 10 7 6 9 9 9 9 8 7 7 8 9 9 9 10 11 12
17 16 20 22 21 18 17 16 16 16 15 16 12 9 6 5 2 10 13 14 9 7 9 14 14 14 13 10 10 8 7 6 7 7 8 8 8 9 9 9 10 10 10
20 21 15 16 18 16 16 14 15 16 14 13 10 9 7 6 5 8 7 9 9 9 13 15 13 11 11 11 8 6 6 6 6 8 8 9 9 9 8 8 9 9 10
19 17 14 11 14 16 15 14 15 13 8 8 7 9 6 7 8 8 10 13 13 14 16 14 13 12 12 11 10 9 7 7 8 9 9 9 10 9 8 7 7 7 7
16 14 13 11 10 11 12 13 18 15 5 9 13 12 9 7 10 8 7 11 20 16 14 15 14 14 13 12 11 10 10 10 10 9 9 9 10 9 8 7 6 7 6
14 12 11 11 10 10 13 13 12 10 6 7 10 14 15 10 10 11 9 7 18 20 14 15 14 14 13 12 11 11 11 11 10 9 9 9 9 8 7 8 7 7 6
14 13 11 9 10 12 15 14 13 11 9 6 6 8 12 15 14 14 15 12 9 14 15 15 14 14 13 12 12 11 11 12 10 10 10 9 9 9 8 8 7 7 6
10 7 6 7 9 10 11 13 12 10 9 7 8 7 10 13 16 16 14 11 14 16 14 15 15 14 13 12 12 11 12 12 11 11 10 9 9 8 8 7 6 5 3
6 7 7 7 9 10 12 12 9 8 9 9 11 13 14 11 8 9 10 13 15 15 13 14 14 14 14 13 12 12 12 12 12 11 11 10 8 8 8 8 9 8 6
5 6 7 7 9 11 11 8 7 8 8 9 8 9 15 15 12 15 16 16 16 14 12 13 14 14 14 13 13 14 14 13 12 11 11 10 9 7 7 7 7 6 6
2 1 1 5 6 6 5 5 5 6 7 6 5 9 16 14 17 18 18 18 15 11 12 14 14 14 15 15 15 15 15 14 13 12 10 10 9 8 8 7 7 7 6
0 3 3 3 3 4 5 5 6 4 1 4 6 7 11 15 19 20 19 18 14 13 13 14 14 14 15 15 14 14 15 15 14 13 11 10 9 8 8 8 8 7 7
3 2 4 5 4 5 6 5 5 4 10 12 12 14 16 17 19 19 18 14 12 14 14 14 14 16 17 15 14 13 14 14 14 14 14 12 11 9 9 8 8 8 9
3 3 3 4 6 7 7 7 7 9 7 11 16 17 15 15 16 18 15 15 15 14 14 14 13 14 16 17 15 14 13 12 10 12 13 13 12 12 12 11 10 10 10
4 4 4 4 4 4 5 5 2 3 6 13 14 14 12 12 13 14 13 15 12 11 11 12 14 15 16 15 13 10 12 14 10 9 11 13 14 14 13 12 13 13 13
Wind_Direction
352 347 345 335 318 290 266 257 252 249 247 252 264 279 288 293 301 299 291 290 292 306 306 295 289 285 266 256 250 238 222 214 194 127 136 120 107 100 97 110 91 73 68
335 330 332 327 317 310 301 286 269 255 250 249 253 264 278 287 293 291 295 294 290 314 339 4 356 318 297 294 268 246 228 207 168 141 138 125 122 119 125 125 106 89 86
323 314 318 325 318 315 315 310 293 271 257 251 249 255 267 276 281 282 287 275 275 293 303 330 340 324 44 55 40 46 121 131 129 135 141 147 143 138 137 124 116 106 100
291 301 298 300 310 308 301 304 299 282 263 252 247 250 252 257 268 269 281 280 266 281 314 336 328 343 38 86 81 70 80 101 113 115 128 146 148 156 142 133 124 113 113
224 239 264 274 276 281 293 303 298 294 277 257 245 238 234 238 243 247 259 262 254 260 27 13 10 24 65 94 107 101 93 97 112 120 138 171 162 161 143 134 123 120 119
240 238 230 235 257 270 273 278 284 290 293 273 246 231 222 224 155 186 252 237 230 145 99 96 116 109 104 99 98 99 115 132 148 153 178 149 120 119 127 138 140 142 128
281 283 282 269 274 274 278 291 293 296 300 293 261 231 218 210 166 179 228 220 210 160 113 70 103 115 133 127 113 96 77 55 64 89 106 124 126 117 137 147 154 149 119
287 289 294 290 286 282 280 280 283 289 292 287 271 239 222 207 176 181 203 224 215 214 153 127 113 129 133 137 134 119 100 73 62 94 97 99 100 105 106 112 118 114 117
277 284 289 286 283 279 273 273 279 288 288 276 260 259 231 208 178 179 196 221 214 204 181 148 143 134 90 139 143 124 107 87 63 74 81 76 67 54 56 142 159 169 148
286 287 284 277 276 275 271 271 271 274 280 282 266 251 253 224 186 183 197 218 199 197 181 149 76 115 124 305 150 136 123 119 115 105 99 96 93 88 67 286 201 185 151
287 287 289 280 274 265 259 261 264 269 273 281 280 255 219 293 229 192 198 220 196 200 184 173 143 121 118 106 162 141 125 125 126 127 127 124 127 127 115 64 25 54 116
289 290 290 280 273 265 258 260 260 263 266 269 272 258 213 190 318 253 201 221 232 205 187 163 137 130 115 104 115 112 129 148 147 143 138 135 131 118 102 80 61 57 58
275 282 284 278 268 265 262 261 257 251 252 263 267 257 222 166 337 288 214 206 214 204 151 120 126 127 117 109 120 139 162 165 157 154 149 141 122 109 114 108 97 94 88
277 281 277 272 275 265 259 255 254 255 245 253 265 245 199 154 190 248 207 197 166 127 120 126 132 128 114 120 142 162 171 165 162 146 135 129 131 145 146 139 144 146 129
272 276 268 250 262 271 261 258 262 257 250 263 249 234 184 174 211 220 196 180 168 153 145 145 150 147 148 158 166 166 153 155 149 141 142 151 155 149 141 143 147 143 131
269 268 267 261 244 249 269 265 244 244 212 228 231 211 183 172 131 143 196 166 147 157 159 157 157 156 158 163 161 157 156 157 149 149 154 156 152 148 145 148 147 136 131
269 259 249 243 245 247 256 262 248 202 176 207 218 199 170 163 135 143 138 105 155 166 175 162 162 161 161 163 161 158 155 149 152 153 148 147 145 144 157 155 151 145 139
284 258 238 231 244 243 237 237 231 213 193 193 203 187 162 151 151 141 123 112 169 190 179 166 165 164 165 165 163 159 152 152 160 153 146 147 148 157 163 160 159 156 144
281 249 226 239 242 240 243 227 205 211 206 187 166 182 165 141 130 133 142 166 182 204 190 166 167 168 167 166 163 156 156 163 161 159 157 157 157 157 154 151 129 92 129
291 247 240 255 240 230 224 202 185 202 203 201 182 174 167 158 159 153 171 191 191 205 195 170 170 170 168 167 163 160 161 161 165 168 163 164 168 162 148 147 147 155 162
271 265 235 230 225 220 202 181 180 200 203 191 178 159 166 174 181 184 186 190 191 194 200 178 172 173 172 172 171 172 169 168 174 177 169 169 170 166 155 153 155 157 150
241 312 211 213 191 182 167 161 186 185 175 172 166 161 170 188 187 182 183 182 186 201 198 182 176 177 179 180 179 181 181 180 182 185 180 176 176 178 171 169 167 167 168
143 168 200 203 173 167 168 163 131 121 183 236 204 172 178 192 176 174 175 174 184 212 195 181 181 179 182 182 185 188 191 188 188 191 194 190 188 191 191 190 190 191 200
81 114 168 179 179 191 186 146 127 215 239 230 203 185 186 179 165 169 169 172 202 209 182 181 185 180 179 182 187 193 198 197 192 193 202 205 200 196 208 210 215 223 228
130 139 143 147 164 178 163 158 186 225 232 156 150 161 169 165 166 167 169 167 197 199 179 180 182 180 179 189 195 198 184 176 202 203 200 213 216 210 214 226 234 241 245
100 114 131 144 146 147 136 140 209 259 148 139 151 162 172 180 171 168 172 156 170 182 182 183 187 186 182 192 200 185 156 159 186 223 224 215 221 225 228 235 244 249 255
Height
1495 1493 1489 1488 1488 1485 1482 1479 1477 1475 1473 1471 1469 1467 1466 1464 1460 1455 1451 1447 1444 1439 1436 1433 1432 1432 1431 1431 1431 1431 1431 1434 1437 1440 1445 1448 1452 1455 1458 1462 1462 1462 1463
1493 1490 1485 1483 1484 1480 1475 1473 1472 1470 1469 1467 1463 1461 1459 1459 1456 1453 1449 1444 1441 1438 1436 1433 1431 1430 1428 1425 1424 1424 1425 1428 1431 1434 1440 1445 1450 1454 1460 1463 1464 1463 1463
1485 1486 1480 1475 1476 1474 1469 1466 1465 1465 1464 1463 1460 1456 1453 1453 1452 1450 1447 1443 1439 1437 1436 1435 1432 1431 1427 1423 1420 1419 1420 1423 1427 1432 1438 1444 1449 1454 1462 1465 1466 1465 1466
1473 1473 1471 1466 1465 1466 1465 1459 1457 1457 1457 1457 1456 1452 1449 1448 1447 1446 1444 1443 1439 1436 1434 1433 1433 1432 1429 1426 1422 1421 1421 1424 1429 1435 1440 1445 1449 1455 1461 1464 1466 1469 1471
1463 1462 1464 1461 1458 1462 1461 1454 1453 1449 1447 1449 1448 1447 1444 1443 1442 1442 1440 1441 1439 1436 1433 1432 1432 1433 1431 1429 1426 1426 1428 1433 1437 1438 1442 1447 1453 1455 1459 1464 1468 1471 1473
1455 1453 1455 1453 1451 1456 1458 1452 1448 1442 1436 1440 1440 1440 1439 1438 1437 1437 1437 1439 1438 1435 1433 1432 1432 1434 1434 1433 1431 1432 1435 1438 1440 1441 1446 1449 1451 1454 1460 1465 1468 1471 1474
1456 1452 1450 1447 1445 1447 1447 1444 1441 1438 1430 1433 1430 1432 1432 1433 1432 1433 1434 1437 1436 1435 1433 1432 1432 1434 1437 1436 1436 1436 1439 1443 1446 1447 1448 1450 1453 1457 1461 1465 1467 1470 1473
1447 1444 1440 1438 1438 1439 1438 1436 1435 1429 1426 1425 1425 1424 1425 1426 1426 1428 1430 1435 1436 1435 1434 1434 1434 1435 1439 1440 1439 1440 1442 1445 1448 1449 1451 1453 1455 1459 1463 1465 1467 1470 1472
1437 1435 1433 1431 1429 1428 1428 1428 1426 1422 1421 1419 1419 1419 1419 1417 1418 1421 1425 1431 1434 1435 1433 1434 1435 1436 1439 1442 1442 1442 1443 1446 1448 1451 1453 1455 1456 1460 1464 1468 1469 1471 1474
1426 1424 1423 1421 1420 1420 1420 1420 1419 1417 1415 1414 1411 1410 1413 1416 1413 1414 1418 1425 1429 1431 1432 1431 1434 1437 1438 1441 1444 1444 1444 1446 1449 1451 1454 1457 1459 1462 1464 1467 1470 1471 1473
1415 1412 1411 1409 1409 1409 1410 1410 1410 1409 1407 1406 1404 1404 1401 1407 1410 1411 1412 1418 1424 1427 1429 1431 1433 1436 1438 1440 1443 1446 1446 1447 1450 1453 1456 1459 1462 1464 1466 1468 1468 1471 1472
1404 1401 1400 1399 1399 1398 1399 1400 1400 1400 1399 1398 1397 1398 1395 1401 1403 1405 1410 1415 1419 1423 1426 1428 1430 1435 1437 1440 1443 1446 1448 1450 1454 1456 1458 1461 1463 1466 1467 1467 1468 1469 1470
1391 1390 1389 1387 1387 1388 1388 1390 1391 1391 1391 1390 1389 1391 1391 1390 1395 1397 1405 1411 1415 1420 1422 1423 1427 1433 1437 1440 1444 1446 1449 1452 1454 1457 1459 1461 1464 1466 1467 1468 1469 1470 1471
1379 1377 1376 1375 1376 1377 1378 1380 1382 1382 1381 1381 1380 1380 1382 1382 1392 1397 1400 1406 1412 1416 1418 1420 1426 1431 1436 1439 1443 1447 1450 1452 1454 1457 1459 1462 1464 1466 1469 1471 1472 1473 1474
1367 1365 1365 1365 1366 1367 1369 1372 1374 1376 1376 1376 1374 1372 1373 1377 1383 1392 1397 1403 1409 1412 1416 1421 1427 1431 1435 1440 1444 1447 1449 1452 1455 1457 1460 1462 1465 1468 1470 1472 1473 1475 1476
1355 1354 1354 1355 1356 1357 1360 1362 1365 1369 1370 1370 1369 1369 1371 1373 1376 1388 1395 1401 1405 1410 1417 1422 1427 1430 1434 1440 1444 1446 1449 1452 1455 1457 1460 1463 1465 1467 1470 1472 1474 1475 1477
1344 1342 1342 1344 1346 1348 1351 1354 1357 1362 1364 1365 1365 1365 1369 1371 1374 1385 1392 1397 1403 1411 1418 1422 1426 1429 1434 1439 1443 1446 1449 1452 1455 1458 1461 1463 1465 1467 1470 1472 1474 1476 1477
1332 1331 1331 1334 1338 1340 1343 1348 1353 1357 1360 1360 1360 1362 1366 1371 1375 1384 1391 1396 1405 1411 1417 1421 1425 1428 1434 1438 1442 1445 1448 1451 1455 1458 1461 1464 1466 1468 1470 1472 1474 1475 1476
1324 1323 1324 1327 1330 1333 1336 1341 1347 1352 1354 1359 1358 1361 1367 1371 1373 1381 1389 1397 1404 1410 1415 1420 1424 1429 1434 1438 1441 1445 1448 1451 1455 1458 1461 1464 1466 1468 1470 1472 1472 1473 1475
1317 1318 1319 1321 1324 1328 1331 1337 1342 1347 1350 1354 1358 1360 1364 1369 1372 1378 1387 1396 1404 1410 1415 1419 1424 1428 1432 1437 1440 1444 1448 1451 1454 1458 1461 1463 1465 1467 1469 1470 1472 1472 1474
1314 1314 1314 1317 1322 1326 1331 1335 1340 1344 1348 1350 1352 1355 1359 1365 1370 1378 1386 1394 1402 1408 1413 1418 1422 1427 1431 1435 1439 1443 1447 1450 1454 1457 1459 1462 1464 1466 1467 1469 1471 1472 1473
1315 1315 1316 1319 1323 1327 1331 1336 1339 1341 1343 1346 1348 1352 1357 1361 1368 1377 1386 1394 1401 1406 1411 1416 1421 1425 1429 1433 1437 1441 1445 1449 1452 1455 1458 1460 1462 1464 1466 1468 1470 1471 1473
1318 1319 1320 1322 1325 1328 1332 1336 1338 1339 1340 1342 1345 1350 1353 1359 1368 1378 1387 1394 1399 1403 1409 1415 1419 1423 1427 1431 1435 1439 1442 1446 1449 1452 1455 1458 1461 1463 1465 1467 1468 1470 1471
1322 1322 1324 1325 1326 1328 1332 1334 1335 1335 1334 1335 1340 1347 1354 1361 1370 1379 1387 1392 1397 1402 1408 1413 1417 1421 1425 1429 1433 1436 1440 1443 1447 1450 1453 1456 1459 1461 1463 1465 1466 1467 1468
1326 1326 1327 1327 1328 1330 1332 1334 1333 1332 1330 1334 1339 1348 1356 1364 1372 1379 1386 1391 1397 1402 1406 1411 1415 1419 1423 1426 1430 1434 1437 1440 1444 1448 1450 1453 1455 1458 1460 1461 1462 1462 1463
1330 1331 1331 1330 1329 1330 1331 1331 1329 1329 1333 1338 1345 1353 1359 1366 1373 1379 1385 1390 1395 1400 1405 1410 1414 1418 1421 1424 1428 1432 1434 1437 1441 1444 1447 1450 1451 1453 1455 1456 1457 1458 1458